| time (UTC) | temp C | wind direction | speed KPH | gust KPH | rain 1hr cm | rain 24hr cm | rain mn cm | humidity % | barometer mb |
| 20260505153007 | 22 | 155 | 9.7 | 16.1 | 0.00 | 0.00 | 0.00 | 50 | 1013.1 |
| 20260505151507 | 22 | 178 | 4.8 | 19.3 | 0.00 | 0.00 | 0.00 | 50 | 1013.2 |
| 20260505124524 | 17 | 125 | 9.7 | 19.3 | 0.00 | 0.00 | 0.00 | 60 | 1013.4 |
| 20260505123023 | 17 | 144 | 8.0 | 22.5 | 0.00 | 0.00 | 0.00 | 58 | 1013.5 |
| 20260505121510 | 16 | 132 | 8.0 | 17.7 | 0.00 | 0.00 | 0.00 | 62 | 1013.4 |
| 20260505120027 | 16 | 153 | 12.9 | 19.3 | 0.00 | 0.00 | 0.00 | 61 | 1013.3 |
| 20260505114508 | 16 | 138 | 12.9 | 19.3 | 0.00 | 0.00 | 0.00 | 61 | 1013.2 |
| 20260505113004 | 16 | 148 | 8.0 | 17.7 | 0.00 | 0.00 | 0.00 | 64 | 1013.1 |
| 20260505111522 | 15 | 162 | 6.4 | 14.5 | 0.00 | 0.00 | 0.00 | 64 | 1013.0 |
| 20260505101512 | 15 | 152 | 4.8 | 12.9 | 0.00 | 0.00 | 0.00 | 64 | 1012.6 |
| 20260505100006 | 15 | 145 | 8.0 | 14.5 | 0.00 | 0.00 | 0.00 | 63 | 1012.4 |
| 20260505094507 | 15 | 142 | 6.4 | 12.9 | 0.00 | 0.00 | 0.00 | 64 | 1012.4 |
| 20260505093003 | 15 | 140 | 8.0 | 14.5 | 0.00 | 0.00 | 0.00 | 62 | 1012.5 |
| 20260505091522 | 16 | 148 | 4.8 | 11.3 | 0.00 | 0.00 | 0.00 | 62 | 1012.5 |
| 20260505090012 | 16 | 132 | 4.8 | 11.3 | 0.00 | 0.00 | 0.00 | 60 | 1012.4 |
| 20260505084512 | 16 | 121 | 3.2 | 8.0 | 0.00 | 0.00 | 0.00 | 61 | 1012.4 |
| 20260505083018 | 16 | 143 | 4.8 | 14.5 | 0.00 | 0.00 | 0.00 | 60 | 1012.3 |
| 20260505081508 | 16 | 132 | 4.8 | 8.0 | 0.00 | 0.00 | 0.00 | 61 | 1012.2 |
| 20260505080005 | 16 | 126 | 3.2 | 8.0 | 0.00 | 0.00 | 0.00 | 59 | 1012.2 |
| 20260505074508 | 16 | 129 | 3.2 | 4.8 | 0.00 | 0.00 | 0.00 | 59 | 1012.1 |
| 20260505073012 | 16 | 134 | 1.6 | 4.8 | 0.00 | 0.00 | 0.00 | 57 | 1012.1 |
| 20260505071530 | 17 | 132 | 3.2 | 11.3 | 0.00 | 0.00 | 0.00 | 57 | 1012.0 |
| 20260505070021 | 17 | 158 | 6.4 | 16.1 | 0.00 | 0.00 | 0.00 | 56 | 1011.8 |
| 20260505064509 | 17 | 144 | 4.8 | 12.9 | 0.00 | 0.00 | 0.00 | 56 | 1011.7 |
| 20260505063007 | 17 | 131 | 3.2 | 11.3 | 0.00 | 0.00 | 0.00 | 55 | 1011.7 |
| 20260505061521 | 18 | 126 | 3.2 | 8.0 | 0.00 | 0.00 | 0.00 | 56 | 1011.5 |
| 20260505060035 | 18 | 131 | 3.2 | 9.7 | 0.00 | 0.00 | 0.00 | 58 | 1011.6 |
| 20260505054527 | 16 | 194 | 6.4 | 14.5 | 0.00 | 0.00 | 0.00 | 60 | 1011.5 |
| 20260505053007 | 15 | 153 | 0.0 | 0.0 | 0.00 | 0.00 | 0.00 | 69 | 1011.5 |
| 20260505051519 | 15 | 153 | 0.0 | 0.0 | 0.00 | 0.00 | 0.00 | 69 | 1011.5 |
| 20260505041511 | 16 | 154 | 0.0 | 0.0 | 0.00 | 0.00 | 0.00 | 70 | 1011.4 |
| 20260505040018 | 16 | 154 | 0.0 | 0.0 | 0.00 | 0.00 | 0.00 | 69 | 1011.3 |
| 20260505034503 | 17 | 154 | 0.0 | 0.0 | 0.00 | 0.00 | 0.00 | 61 | 1011.5 |
| 20260505033004 | 17 | 154 | 1.6 | 3.2 | 0.00 | 0.00 | 0.00 | 66 | 1011.6 |
| 20260505031503 | 18 | 138 | 0.0 | 4.8 | 0.00 | 0.00 | 0.00 | 57 | 1011.6 |
| 20260505030006 | 18 | 144 | 3.2 | 9.7 | 0.00 | 0.00 | 0.00 | 56 | 1011.7 |
| 20260505024506 | 19 | 171 | 4.8 | 9.7 | 0.00 | 0.00 | 0.00 | 55 | 1011.8 |
| 20260505023013 | 19 | 152 | 4.8 | 9.7 | 0.00 | 0.00 | 0.00 | 56 | 1011.7 |
| 20260505021503 | 19 | 138 | 1.6 | 4.8 | 0.00 | 0.00 | 0.00 | 55 | 1011.6 |
| 20260505020008 | 19 | 149 | 1.6 | 4.8 | 0.00 | 0.00 | 0.00 | 54 | 1011.6 |
| 20260505014512 | 20 | 133 | 0.0 | 4.8 | 0.00 | 0.00 | 0.00 | 53 | 1011.4 |
| 20260505013004 | 20 | 130 | 1.6 | 9.7 | 0.00 | 0.00 | 0.00 | 52 | 1011.3 |
| 20260505011505 | 20 | 173 | 4.8 | 9.7 | 0.00 | 0.00 | 0.00 | 53 | 1011.3 |
| 20260505010005 | 21 | 142 | 1.6 | 9.7 | 0.00 | 0.00 | 0.00 | 48 | 1011.1 |
| 20260505004503 | 21 | 141 | 4.8 | 16.1 | 0.00 | 0.00 | 0.00 | 47 | 1010.9 |
| 20260505003008 | 22 | 166 | 14.5 | 29.0 | 0.00 | 0.00 | 0.00 | 44 | 1010.9 |
| 20260505001506 | 22 | 138 | 4.8 | 11.3 | 0.00 | 0.00 | 0.00 | 42 | 1011.0 |
| 20260505000019 | 22 | 135 | 1.6 | 8.0 | 0.00 | 0.00 | 0.00 | 42 | 1010.8 |
| 20260504234510 | 22 | 120 | 8.0 | 11.3 | 0.00 | 0.00 | 0.00 | 43 | 1010.6 |
| 20260504233006 | 22 | 131 | 8.0 | 17.7 | 0.00 | 0.00 | 0.00 | 40 | 1010.4 |
| 20260504231504 | 23 | 164 | 4.8 | 12.9 | 0.00 | 0.00 | 0.00 | 41 | 1010.5 |
| 20260504230006 | 23 | 127 | 3.2 | 16.1 | 0.00 | 0.00 | 0.00 | 39 | 1010.4 |
| 20260504224513 | 23 | 169 | 12.9 | 24.1 | 0.00 | 0.00 | 0.00 | 39 | 1010.4 |
| 20260504223014 | 23 | 202 | 16.1 | 30.6 | 0.00 | 0.00 | 0.00 | 38 | 1010.3 |
| 20260504221512 | 23 | 184 | 14.5 | 25.7 | 0.00 | 0.00 | 0.00 | 39 | 1010.4 |
| 20260504220009 | 23 | 148 | 14.5 | 30.6 | 0.00 | 0.00 | 0.00 | 39 | 1010.6 |
| 20260504214518 | 23 | 151 | 14.5 | 30.6 | 0.00 | 0.00 | 0.00 | 39 | 1010.6 |
| 20260504213017 | 23 | 138 | 17.7 | 33.8 | 0.00 | 0.00 | 0.00 | 38 | 1010.6 |
| 20260504211524 | 23 | 150 | 11.3 | 37.0 | 0.00 | 0.00 | 0.00 | 39 | 1010.4 |
| 20260504210014 | 23 | 137 | 16.1 | 35.4 | 0.00 | 0.00 | 0.00 | 40 | 1010.5 |
| 20260504204517 | 22 | 136 | 14.5 | 30.6 | 0.00 | 0.00 | 0.00 | 37 | 1010.6 |
| 20260504203012 | 22 | 163 | 14.5 | 30.6 | 0.00 | 0.00 | 0.00 | 36 | 1010.7 |
| 20260504201510 | 23 | 165 | 17.7 | 35.4 | 0.00 | 0.00 | 0.00 | 38 | 1010.8 |
| 20260504200017 | 22 | 184 | 11.3 | 27.4 | 0.00 | 0.00 | 0.00 | 38 | 1010.9 |
| 20260504194516 | 22 | 167 | 8.0 | 30.6 | 0.00 | 0.00 | 0.00 | 38 | 1011.0 |
| 20260504193022 | 22 | 153 | 16.1 | 25.7 | 0.00 | 0.00 | 0.00 | 38 | 1011.3 |
| 20260504191520 | 22 | 132 | 8.0 | 27.4 | 0.00 | 0.00 | 0.00 | 37 | 1011.3 |
| 20260504190020 | 22 | 155 | 16.1 | 30.6 | 0.00 | 0.00 | 0.00 | 36 | 1011.5 |
| 20260504184504 | 22 | 190 | 9.7 | 32.2 | 0.00 | 0.00 | 0.00 | 38 | 1011.6 |
| 20260504183008 | 22 | 49 | 8.0 | 24.1 | 0.00 | 0.00 | 0.00 | 36 | 1011.7 |
| 20260504181517 | 21 | 160 | 19.3 | 33.8 | 0.00 | 0.00 | 0.00 | 37 | 1012.1 |
| 20260504180005 | 21 | 137 | 17.7 | 25.7 | 0.00 | 0.00 | 0.00 | 35 | 1012.4 |
| 20260504174504 | 21 | 124 | 14.5 | 27.4 | 0.00 | 0.00 | 0.00 | 35 | 1012.5 |
| 20260504173004 | 21 | 147 | 8.0 | 29.0 | 0.00 | 0.00 | 0.00 | 37 | 1012.7 |
| 20260504171513 | 20 | 173 | 11.3 | 24.1 | 0.00 | 0.00 | 0.00 | 36 | 1012.9 |